This is the latest recevied weather packets stored in our database for station/object KD4KKF. If no packets are shown the sender has not sent any weather packets the latest 10 day(s).
| Time | Temp. | Humidity | Pressure | Rain* | Wind** | Luminosity | Snow |
|---|---|---|---|---|---|---|---|
| 1788139965 | 77° F | 99% | 762.6 mmHg | 0 in | - | 0 W/m² | - |
| 1788139660 | 77° F | 99% | 762.6 mmHg | 0 in | - | 0 W/m² | - |
| 1788139355 | 77° F | 98% | 762.7 mmHg | 0 in | - | 0 W/m² | - |
| 1788139054 | 77° F | 98% | 762.4 mmHg | 0 in | - | 0 W/m² | - |
| 1788138750 | 78° F | 98% | 762.4 mmHg | 0 in | - | 0 W/m² | - |
| 1788138445 | 78° F | 97% | 762.2 mmHg | 0 in | - | 0 W/m² | - |
| 1788138140 | 78° F | 98% | 762.2 mmHg | 0 in | - | 0 W/m² | - |
| 1788137835 | 78° F | 97% | 762.1 mmHg | 0 in | - | 0 W/m² | - |
| 1788137530 | 78° F | 97% | 762.1 mmHg | 0 in | - | 0 W/m² | - |
| 1788137226 | 78° F | 97% | 762.1 mmHg | 0 in | - | 0 W/m² | - |
| 1788136922 | 79° F | 97% | 762.2 mmHg | 0 in | - | 0 W/m² | - |
| 1788136617 | 79° F | 97% | 762.1 mmHg | 0 in | - | 0 W/m² | - |
| 1788136313 | 79° F | 96% | 762.4 mmHg | 0 in | - | 0 W/m² | - |
| 1788136012 | 79° F | 96% | 762.1 mmHg | 0 in | - | 0 W/m² | - |
| 1788135707 | 80° F | 95% | 762.4 mmHg | 0 in | - | 1 W/m² | - |
| 1788135403 | 80° F | 95% | 762.4 mmHg | 0 in | - | 5 W/m² | - |
| 1788135098 | 80° F | 95% | 762.5 mmHg | 0 in | - | 7 W/m² | - |
| 1788134795 | 81° F | 94% | 762.5 mmHg | 0 in | - | 10 W/m² | - |
| 1788134494 | 81° F | 93% | 762.4 mmHg | 0 in | - | 15 W/m² | - |
| 1788134193 | 81° F | 93% | 762.1 mmHg | 0 in | - | 19 W/m² | - |
| 1788133888 | 82° F | 93% | 762.4 mmHg | 0 in | - | 22 W/m² | - |
| 1788133583 | 82° F | 90% | 762.4 mmHg | 0 in | - | 26 W/m² | - |
| 1788133279 | 83° F | 90% | 762.4 mmHg | 0 in | - | 30 W/m² | - |
| 1788132974 | 84° F | 88% | 762.1 mmHg | 0 in | - | 34 W/m² | - |
| 1788132670 | 84° F | 87% | 762.2 mmHg | 0 in | - | 38 W/m² | - |
* Rain latest hour (hover to see other rain measurements)
** Current wind speed in m/s (hover to see current wind gust speed)